EDT,Max TemperatureF,Mean TemperatureF,Min TemperatureF,Max Dew PointF,MeanDew PointF,Min DewpointF,Max Humidity, Mean Humidity, Min Humidity, Max Sea Level PressureIn, Mean Sea Level PressureIn, Min Sea Level PressureIn, Max VisibilityMiles, Mean VisibilityMiles, Min VisibilityMiles, Max Wind SpeedMPH, Mean Wind SpeedMPH, Max Gust SpeedMPH,PrecipitationIn, CloudCover, Events, WindDirDegrees
2013-6-1,89,78,68,68,65,63,83,65,49,30.06,29.99,29.92,10,10,10,14,6,20,0.00,3,,193
2013-6-2,80,74,68,70,66,61,100,82,57,29.92,29.88,29.86,10,9,0,12,5,34,1.19,3,Rain-Thunderstorm,199
2013-6-3,77,70,60,68,62,54,100,81,61,30.00,29.90,29.87,10,10,3,13,4,24,0.22,5,Rain,322
2013-6-4,73,62,51,54,49,43,94,65,43,30.15,30.10,30.01,10,10,10,13,5,17,0.00,2,,332
2013-6-5,77,64,50,61,56,50,100,75,47,30.18,30.11,30.04,10,10,10,14,3,18,0.00,4,,136
2013-6-6,64,62,60,64,59,52,100,88,64,30.06,29.97,29.86,10,8,2,12,6,,0.45,7,Rain,137
2013-6-7,64,63,62,64,64,63,100,100,100,29.86,29.76,29.67,10,6,0,13,2,,0.29,8,Fog-Rain,351
2013-6-8,77,68,59,66,61,57,100,80,57,30.12,29.95,29.77,10,10,5,12,5,,0.00,3,Rain,303
2013-6-9,77,68,59,70,64,59,100,87,69,30.21,30.15,30.10,10,9,4,8,2,,0.00,4,Rain,98
2013-6-10,78,72,64,73,69,64,100,98,78,30.11,29.95,29.81,10,8,3,15,4,23,0.67,6,Rain-Thunderstorm,163
2013-6-11,78,71,64,64,64,63,100,75,57,29.89,29.85,29.82,10,10,10,17,7,23,0.01,4,,251
2013-6-12,87,74,62,70,65,61,100,72,48,29.91,29.87,29.81,10,10,10,16,5,22,0.00,3,,254
2013-6-13,80,72,64,72,66,55,100,87,65,29.82,29.65,29.52,10,9,1,24,7,41,0.75,4,Rain-Thunderstorm,249
2013-6-14,77,68,59,57,54,52,82,64,44,30.02,29.87,29.67,10,10,10,17,12,28,0.00,4,,323
2013-6-15,80,68,55,61,55,50,94,65,36,30.11,30.05,30.02,10,10,10,13,5,21,0.00,2,,285
2013-6-16,80,70,59,66,61,55,94,72,57,30.05,29.98,29.92,10,10,10,16,4,18,0.00,3,Rain,233
2013-6-17,84,75,66,72,67,61,94,76,58,29.99,29.95,29.90,10,10,7,9,5,17,0.08,4,Rain-Thunderstorm,211
2013-6-18,73,68,64,72,68,64,100,98,88,29.93,29.88,29.82,10,9,4,12,3,,0.25,4,Rain-Thunderstorm,235
2013-6-19,77,68,60,66,62,59,100,85,57,30.16,30.05,29.92,10,10,7,7,3,,0.00,5,,31
2013-6-20,78,68,59,68,63,57,100,83,57,30.26,30.22,30.16,10,8,2,14,3,17,0.00,4,,156
2013-6-21,82,68,55,64,59,52,100,69,54,30.30,30.26,30.23,10,10,10,10,5,,0.00,2,,148
2013-6-22,86,72,59,70,65,59,100,77,51,30.26,30.21,30.14,10,10,7,10,4,,0.00,2,,178
2013-6-23,86,74,62,70,68,63,100,80,45,30.20,30.16,30.09,10,10,2,7,3,,0.00,2,Rain,170
2013-6-24,89,78,68,72,68,63,100,77,52,30.17,30.12,30.06,10,10,4,18,6,26,0.20,3,Rain-Thunderstorm,222
2013-6-25,89,78,66,72,68,59,94,70,51,30.07,30.01,29.93,10,10,10,13,6,37,0.00,2,,232
2013-6-26,87,74,62,72,67,63,100,79,52,29.96,29.91,29.85,10,10,7,14,3,22,0.00,3,Rain,239
2013-6-27,82,73,64,73,69,64,100,85,62,29.85,29.73,29.65,10,8,0,14,4,17,0.06,4,Fog-Rain,218
2013-6-28,87,78,69,72,66,61,89,72,52,29.67,29.59,29.52,10,10,5,22,6,41,0.02,4,Rain-Thunderstorm,238
2013-6-29,86,74,62,70,63,59,100,71,42,29.73,29.63,29.55,10,10,3,18,5,23,0.33,4,Rain,220
2013-6-30,86,75,64,73,69,64,100,86,58,29.86,29.78,29.72,10,8,0,14,2,18,0.00,4,Fog,139